IRIDIUM 33 DEB, 39783

Orbit data source: Space-Track

IRIDIUM 33 DEB, 39783 is space debris in LEO originally from a launch on Sun, 14 Sep 1997 UTC launched from the Tyuratam Missile And Space Complex (TTMTR). The debris from Iridium 33, an American commercial communications satellite, has been tracked extensively since its accidental collision with the defunct Russian satellite Cosmos 2251 in 2009. This event, occurring at high speed in low Earth orbit (LEO), generated thousands of pieces of space debris, significantly increasing the risk of further collisions. The Iridium 33 debris cloud has impacted space traffic management and orbital debris mitigation strategies, making it a subject of ongoing study in space situational awareness.

Not visible in the next 10 days
Identifier
39783, 1997-051AAQ
Orbit
LEO
Country
Flag of USUS
Related business
Manufacturer
Unknown
Mission
Spacecraft
Bus & Motor
Unknown
Mass
Unknown
Launch date (UTC)
1997-09-14 (28 years ago)
Launch vehicle
Unknown
Launch site
Tyuratam Missile And Space Complex (TTMTR)
Object type
Payload
Rocket body
Debris
Shape & HBR
Unknown shape, 0.1 m
Radar Cross Section
Small (<0.1 m²)

Expand to show TLE details & history
Last TLE update: 3 months ago

TLE from 3 months ago
0 IRIDIUM 33 DEB
1 39783U 97051AAQ 25320.62894503  .00226179  00000-0  10398-1 0  9990
2 39783  86.1306 268.8004 0005753 179.9151   1.8316 15.19327111604018
Epoch: 2025-11-16T15:05Z
TLE epoch observation values (Epoch: 2025-11-16T15:05:40.850Z)
Latitude
-1.88078°
Longitude
166.56575°
Altitude
507.343 km
Speed
7.612 km/s
True Right ascension
05h 55m 42s
True Declination
-1° 52' 09"
Sunlit
Object was in full shadow at epoch
Visualization orbit readout
Latitude
Unknown
Longitude
Unknown
Altitude
Unknown
Speed
Unknown
Apparent Right ascension
Unknown
Apparent Declination
Unknown
Sunlit
N/A
Visualization observer readout
Local Sidereal Time
14:22:31
Azimuth
Unknown
Elevation
Unknown
Doppler factor
Unknown
Orbital elements
Apogee altitude
508.684 km
Perigee altitude
500.764 km
Semi-major axis
6,882.861 km
Eccentricity
0.00058
Inclination
86.1306°
RAAN
268.8004°
Arg. of periapsis
179.9151°
True anomaly
1.83371°
Mean anomaly
1.8316°
Eccentric anomaly
1.83265°
Mean motion
3.80093 °/min
Orbital period
94.71 mins
BSTAR
0.010398
Loading maneuver chart data...
Computing Atmospheric mass density...
Loading historical data...
Loading historical data...
Loading historical data...
Loading historical data...
Loading historical data...
Loading historical data...
Loading historical data...

Documentation

Showing up to 5 results
|